Fort Rucker / Ozark, AL

6:25 AM CST on November 15, 2019 (GMT -0600)
Fort Rucker / Ozark

Weather History for KLOR - October, 2019

Change the Weather History Date:

Monday, October 21, 2019

  Actual Average (WUND) Record (WUND)
Temperature  
Mean Temperature 70 °F -  
Max Temperature 83 °F - - (-1)
Min Temperature 55 °F - - (-1)
Cooling Degree Days 4    
Growing Degree Days 20 (Base 50)    
Moisture  
Dew Point 65 °F    
Average Humidity 94    
Maximum Humidity 100    
Minimum Humidity 62    
Precipitation  
Precipitation 0.00 in - - ()
Sea Level Pressure  
Sea Level Pressure 29.89 in    
Wind  
Wind Speed 1 mph (SSE)    
Max Wind Speed 13 mph    
Max Gust Speed -    
Visibility 6 miles    
Events Fog , Rain , Thunderstorm    
Averages and records for this station are not official NWS values.
T = Trace of Precipitation, MM = Missing Value Source: NWS Daily Summary

Daily Weather History Graph

Daily Weather History Graph

Search for Another Location

Airport or City:

Astronomy

Oct. 21, 2019 Rise Set
Actual Time 6:50 AM CDT 6:04 PM CDT
Civil Twilight 6:25 AM CDT 6:29 PM CDT
Nautical Twilight 5:57 AM CDT 6:57 PM CDT
Astronomical Twilight 5:28 AM CDT 7:25 PM CDT
Moon No Moon Rise 1:54 PM CDT (10/21)
Length of Visible Light 12h 03m
Length of Day
11h 14m
Waning Gibbous, 48% of the Moon is Illuminated
Oct 21
Waning Gibbous
Oct 27
New
Nov 4
First Quarter
Nov 12
Full
Nov 19
Last Quarter

Hourly Weather History & Observations

Time (CDT) Temp. Heat Index Dew Point Humidity Pressure Visibility Wind Dir Wind Speed Gust Speed Precip Events Conditions
12:00 AM 59.0 °F - 59.0 °F 100% 29.91 in 1.5 mi Calm Calm - N/A   Clear
12:02 AM 59.0 °F - 59.0 °F 100% 29.91 in 1.4 mi Calm Calm - N/A   Clear
12:03 AM 59.0 °F - 59.0 °F 100% 29.91 in 1.5 mi Calm Calm - N/A   Clear
12:05 AM 59.0 °F - 59.0 °F 100% 29.91 in 2.5 mi Calm Calm - N/A   Clear
12:06 AM 59.0 °F - 59.0 °F 100% 29.91 in 3.0 mi Calm Calm - N/A   Clear
12:48 AM 57.2 °F - 57.2 °F 100% 29.89 in 7.0 mi Calm Calm - N/A   Clear
12:58 AM 57.9 °F - 57.9 °F 100% 29.89 in 9.0 mi Calm Calm - N/A   Clear
1:58 AM 57.9 °F - 57.9 °F 100% 29.88 in 8.0 mi Calm Calm - N/A   Clear
2:58 AM 56.8 °F - 56.8 °F 100% 29.87 in 8.0 mi Calm Calm - N/A   Clear
3:58 AM 57.0 °F - 57.0 °F 100% 29.88 in 8.0 mi Calm Calm - N/A   Clear
4:58 AM 55.0 °F - 55.0 °F 100% 29.87 in 7.0 mi Calm Calm - N/A   Clear
5:14 AM 57.2 °F - 57.2 °F 100% 29.88 in 7.0 mi Calm Calm - N/A   Partly Cloudy
5:24 AM 55.4 °F - 55.4 °F 100% 29.89 in 9.0 mi Calm Calm - N/A   Mostly Cloudy
5:29 AM 55.4 °F - 55.4 °F 100% 29.89 in 9.0 mi Calm Calm - N/A   Mostly Cloudy
5:34 AM 57.2 °F - 57.2 °F 100% 29.89 in 9.0 mi Calm Calm - N/A   Mostly Cloudy
5:40 AM 57.2 °F - 57.2 °F 100% 29.89 in 2.8 mi Calm Calm - N/A   Overcast
5:42 AM 57.2 °F - 57.2 °F 100% 29.89 in 1.6 mi Calm Calm - N/A   Overcast
5:43 AM 57.2 °F - 57.2 °F 100% 29.89 in 1.4 mi Calm Calm - N/A   Overcast
5:44 AM 57.2 °F - 57.2 °F 100% 29.89 in 1.1 mi Calm Calm - N/A   Overcast
5:48 AM 57.2 °F - 57.2 °F 100% 29.89 in 0.6 mi Calm Calm - N/A   Mist
5:53 AM 57.2 °F - 57.2 °F 100% 29.89 in 0.4 mi Calm Calm - N/A Fog Fog
5:58 AM 57.7 °F - 57.7 °F 100% 29.89 in 0.4 mi Calm Calm - N/A Fog Fog
6:16 AM 59.0 °F - 59.0 °F 100% 29.87 in 0.2 mi Calm Calm - N/A Fog Fog
6:41 AM 59.0 °F - 59.0 °F 100% 29.88 in 0.2 mi Calm Calm - N/A Fog Fog
6:58 AM 59.4 °F - 59.4 °F 100% 29.88 in 0.4 mi Calm Calm - N/A Fog Fog
7:51 AM 62.6 °F - 62.6 °F 100% 29.90 in 0.4 mi Calm Calm - N/A Fog Fog
7:58 AM 62.1 °F - 62.1 °F 100% 29.90 in 0.8 mi Calm Calm - N/A   Mist
8:00 AM 62.6 °F - 62.6 °F 100% 29.90 in 1.0 mi Calm Calm - N/A   Mist
8:02 AM 62.6 °F - 62.6 °F 100% 29.90 in 1.2 mi Calm Calm - N/A   Overcast
8:09 AM 62.6 °F - 62.6 °F 100% 29.91 in 3.0 mi ESE 3.5 mph - N/A   Overcast
8:44 AM 64.4 °F - 64.4 °F 100% 29.92 in 6.0 mi Calm Calm - N/A   Overcast
8:49 AM 64.4 °F - 64.4 °F 100% 29.92 in 6.0 mi Calm Calm - N/A   Mostly Cloudy
8:54 AM 64.4 °F - 64.4 °F 100% 29.92 in 6.0 mi Calm Calm - N/A   Mostly Cloudy
8:58 AM 64.8 °F - 64.8 °F 100% 29.93 in 6.0 mi Calm Calm - N/A   Overcast
9:13 AM 66.2 °F - 66.2 °F 100% 29.92 in 7.0 mi Calm Calm - N/A   Overcast
9:23 AM 66.2 °F - 66.2 °F 100% 29.92 in 7.0 mi Calm Calm - N/A   Overcast
9:53 AM 68.0 °F - 68.0 °F 100% 29.92 in 9.0 mi East 4.6 mph - N/A   Overcast
9:58 AM 68.0 °F - 68.0 °F 100% 29.92 in 8.0 mi Calm Calm - N/A   Overcast
10:13 AM 69.8 °F - 69.8 °F 100% 29.93 in 9.0 mi Calm Calm - N/A   Overcast
10:18 AM 69.8 °F - 69.8 °F 100% 29.92 in 9.0 mi Calm Calm - N/A   Overcast
10:53 AM 71.6 °F - 69.8 °F 94% 29.92 in 9.0 mi East 4.6 mph - N/A   Overcast
10:58 AM 72.5 °F - 70.0 °F 92% 29.92 in 9.0 mi East 4.6 mph - N/A   Overcast
11:46 AM 77.0 °F - 69.8 °F 78% 29.90 in 10.0 mi SE 5.8 mph - N/A   Scattered Clouds
11:58 AM 79.3 °F - 70.2 °F 73% 29.90 in 10.0 mi South 8.1 mph - N/A   Partly Cloudy
12:38 PM 78.8 °F - 69.8 °F 74% 29.89 in 9.0 mi South 8.1 mph - N/A   Mostly Cloudy
12:58 PM 80.8 °F 83.9 °F 69.4 °F 68% 29.89 in 10.0 mi South 5.8 mph - N/A   Overcast
1:18 PM 80.6 °F 83.9 °F 69.8 °F 70% 29.88 in 10.0 mi SSE 6.9 mph - N/A   Mostly Cloudy
1:23 PM 80.6 °F 83.9 °F 69.8 °F 70% 29.88 in 10.0 mi SSE 4.6 mph - N/A   Mostly Cloudy
1:28 PM 80.6 °F 83.9 °F 69.8 °F 70% 29.87 in 10.0 mi Calm Calm - N/A   Overcast
1:58 PM 82.0 °F 85.5 °F 69.1 °F 65% 29.87 in 9.0 mi South 5.8 mph - N/A   Mostly Cloudy
2:57 PM 84.2 °F 88.4 °F 69.8 °F 62% 29.85 in 10.0 mi South 8.1 mph - N/A   Mostly Cloudy
2:58 PM 83.5 °F 87.2 °F 69.4 °F 62% 29.85 in 10.0 mi South 8.1 mph - N/A   Mostly Cloudy
3:58 PM 81.7 °F 85.1 °F 69.3 °F 66% 29.84 in 10.0 mi SSE 4.6 mph - N/A   Mostly Cloudy
4:58 PM 80.2 °F 83.3 °F 69.8 °F 70% 29.84 in 8.0 mi SSE 4.6 mph - N/A   Overcast
5:58 PM 77.0 °F - 69.4 °F 77% 29.84 in 8.0 mi SSE 6.9 mph - N/A   Mostly Cloudy
6:58 PM 73.9 °F - 69.8 °F 87% 29.86 in 10.0 mi Calm Calm - N/A   Scattered Clouds
7:58 PM 71.6 °F - 70.0 °F 95% 29.87 in 10.0 mi Calm Calm - N/A Thunderstorm Partly Cloudy
8:16 PM 71.6 °F - 69.8 °F 94% 29.89 in 10.0 mi Calm Calm - N/A   Scattered Clouds
8:36 PM 71.6 °F - 69.8 °F 94% 29.89 in 10.0 mi Calm Calm - N/A   Overcast
8:51 PM 73.4 °F - 69.8 °F 88% 29.89 in 10.0 mi Calm Calm - N/A   Mostly Cloudy
8:56 PM 73.4 °F - 69.8 °F 88% 29.89 in 10.0 mi Calm Calm - N/A   Mostly Cloudy
8:58 PM 73.8 °F - 70.0 °F 88% 29.89 in 10.0 mi Calm Calm - N/A   Mostly Cloudy
9:02 PM 71.6 °F - 69.8 °F 94% 29.91 in 10.0 mi Calm Calm - N/A   Mostly Cloudy
9:15 PM 71.6 °F - 69.8 °F 94% 29.91 in 3.0 mi Calm Calm - N/A Rain Light Rain
9:16 PM 71.6 °F - 69.8 °F 94% 29.91 in 2.5 mi Calm Calm - N/A Rain Light Rain
9:25 PM 71.6 °F - 71.6 °F 100% 29.90 in 3.0 mi NNW 4.6 mph - N/A Rain Light Rain
9:35 PM 71.6 °F - 69.8 °F 94% 29.92 in 4.0 mi NW 6.9 mph - N/A Rain Light Rain
9:50 PM 71.6 °F - 71.6 °F 100% 29.94 in 2.8 mi West 11.5 mph - N/A Rain Light Rain
9:52 PM 71.6 °F - 71.6 °F 100% 29.94 in 1.9 mi West 12.7 mph - N/A Rain Rain
9:56 PM 71.6 °F - 69.8 °F 94% 29.94 in 1.4 mi West 10.4 mph - N/A Rain Heavy Rain
9:58 PM 71.2 °F - 70.5 °F 98% 29.94 in 1.4 mi West 10.4 mph - 0.00 in Rain Heavy Rain
10:04 PM 69.8 °F - 69.8 °F 100% 29.94 in 1.5 mi SW 5.8 mph - N/A Rain Rain
10:10 PM 69.8 °F - 69.8 °F 100% 29.92 in 1.6 mi Calm Calm - N/A Rain Rain
10:13 PM 69.8 °F - 69.8 °F 100% 29.90 in 1.6 mi ESE 5.8 mph - N/A Rain Rain
10:19 PM 69.8 °F - 69.8 °F 100% 29.90 in 2.0 mi Calm Calm - N/A Rain Light Rain
10:24 PM 69.8 °F - 69.8 °F 100% 29.91 in 3.0 mi South 5.8 mph - N/A Rain Light Rain
10:55 PM 69.8 °F - 69.8 °F 100% 29.89 in 4.0 mi SE 5.8 mph - N/A Rain Light Rain
10:58 PM 69.1 °F - 69.1 °F 100% 29.89 in 3.0 mi ESE 5.8 mph - 0.00 in Rain Light Rain
11:03 PM 68.0 °F - 68.0 °F 100% 29.87 in 3.0 mi ESE 4.6 mph - N/A Rain Light Rain
11:21 PM 68.0 °F - 68.0 °F 100% 29.86 in 9.0 mi SE 5.8 mph - N/A   Overcast
11:33 PM 68.0 °F - 68.0 °F 100% 29.84 in 10.0 mi ESE 4.6 mph - N/A   Mostly Cloudy
11:44 PM 69.8 °F - 68.0 °F 94% 29.86 in 10.0 mi SE 3.5 mph - N/A   Mostly Cloudy
11:58 PM 69.4 °F - 68.9 °F 98% 29.86 in 10.0 mi SSE 4.6 mph - 0.00 in   Mostly Cloudy